Location: Newark
(49.4642°N, 2.1122°E)
Time: 10:51:50
(UTC+00:00)

X-37B - Visible Passes

Search period start: 27 February 2021 00:00
Search period end: 09 March 2021 00:00
Orbit: 383 x 391 km, 45.0° (Epoch: 10 February)

Date Brightness Start Highest point End Pass type
(mag) Time Alt. Az. Time Alt. Az. Time Alt. Az.
27 Feb 1.9 04:44:21 29° S 04:44:21 29° S 04:46:42 10° SE visible
28 Feb 2.4 05:20:56 17° SW 05:21:46 18° SSW 05:24:03 10° SSE visible
01 Mar 3.0 04:25:18 16° SSE 04:25:18 16° SSE 04:26:15 10° SE visible
02 Mar 3.0 05:02:03 12° SSW 05:02:03 12° SSW 05:02:55 10° S visible
